When you browse on this site, cookies collect data to enhance your experience and personalize the content and advertising you see.
Visit our Privacy Policy to learn more. By continuing to use the site, you agree to this use of cookies and data.

Stündliche Wetter Zasluchchya

Heute, 15 Juli, Mittwoch

Zeit Temperatur Niederschläge Wind Luftdruck Luftfeuchtigkeit
00:00 +12°C° 0 mm 2 m/S 747 mmHg 95%
01:00 +12°C° 0 mm 2 m/S 747 mmHg 95%
02:00 +12°C° 0 mm 2 m/S 748 mmHg 95%
03:00 +10°C° 0 mm 2 m/S 747 mmHg 95%
04:00 +10°C° 0 mm 2 m/S 747 mmHg 95%
05:00 +10°C° 0 mm 2 m/S 747 mmHg 95%
06:00 +12°C° 0 mm 3 m/S 747 mmHg 90%
07:00 +13°C° 0 mm 3 m/S 747 mmHg 85%
08:00 +16°C° 0 mm 3 m/S 747 mmHg 81%
09:00 +17°C° 0 mm 3 m/S 747 mmHg 74%
10:00 +19°C° 0 mm 3 m/S 747 mmHg 68%
11:00 +20°C° 0 mm 3 m/S 747 mmHg 61%
12:00 +21°C° 0 mm 3 m/S 747 mmHg 59%
13:00 +22°C° 0 mm 3 m/S 747 mmHg 56%
14:00 +22°C° 0 mm 3 m/S 747 mmHg 53%
15:00 +22°C° 0 mm 3 m/S 747 mmHg 54%
16:00 +22°C° 0 mm 3 m/S 747 mmHg 55%
17:00 +23°C° 0 mm 2 m/S 747 mmHg 56%
18:00 +21°C° 0 mm 2 m/S 747 mmHg 63%
19:00 +20°C° 0 mm 1 m/S 747 mmHg 70%
20:00 +18°C° 0 mm 1 m/S 747 mmHg 77%
21:00 +16°C° 0 mm 1 m/S 747 mmHg 80%
22:00 +15°C° 0 mm 0 m/S 747 mmHg 82%
23:00 +14°C° 0 mm 0 m/S 747 mmHg 85%

Morgen, 16 Juli, Donnerstag

Zeit Temperatur Niederschläge Wind Luftdruck Luftfeuchtigkeit
00:00 +13°C° 0 mm 0 m/S 747 mmHg 86%
01:00 +13°C° 0 mm 0 m/S 747 mmHg 87%
02:00 +13°C° 0 mm 0 m/S 747 mmHg 88%
03:00 +13°C° 0 mm 0 m/S 747 mmHg 87%
04:00 +12°C° 0 mm 0 m/S 747 mmHg 87%
05:00 +12°C° 0 mm 0 m/S 746 mmHg 87%
06:00 +15°C° 0 mm 0 m/S 747 mmHg 81%
07:00 +17°C° 0 mm 0 m/S 747 mmHg 75%
08:00 +19°C° 0 mm 0 m/S 747 mmHg 69%
09:00 +22°C° 0 mm 1 m/S 747 mmHg 64%
10:00 +24°C° 0 mm 1 m/S 747 mmHg 58%
11:00 +25°C° 0 mm 1 m/S 746 mmHg 53%
12:00 +26°C° 0 mm 1 m/S 746 mmHg 51%
13:00 +26°C° 0 mm 1 m/S 746 mmHg 49%
14:00 +27°C° 0 mm 1 m/S 746 mmHg 47%
15:00 +27°C° 0.1 mm 1 m/S 745 mmHg 50%
16:00 +26°C° 0.1 mm 1 m/S 745 mmHg 53%
17:00 +26°C° 0.1 mm 1 m/S 745 mmHg 57%
18:00 +24°C° 0.4 mm 1 m/S 745 mmHg 65%
19:00 +22°C° 0.4 mm 1 m/S 745 mmHg 73%
20:00 +20°C° 0.4 mm 1 m/S 745 mmHg 81%
21:00 +20°C° 0.2 mm 1 m/S 745 mmHg 83%
22:00 +19°C° 0.2 mm 1 m/S 745 mmHg 85%
23:00 +18°C° 0.2 mm 1 m/S 745 mmHg 87%

übermorgen, 17 Juli, Freitag

Zeit Temperatur Niederschläge Wind Luftdruck Luftfeuchtigkeit
00:00 +18°C° 0 mm 1 m/S 745 mmHg 89%
01:00 +16°C° 0 mm 1 m/S 746 mmHg 90%
02:00 +16°C° 0 mm 1 m/S 746 mmHg 92%
03:00 +16°C° 0 mm 1 m/S 746 mmHg 92%
04:00 +16°C° 0 mm 1 m/S 746 mmHg 93%
05:00 +16°C° 0 mm 1 m/S 746 mmHg 94%
06:00 +18°C° 0.1 mm 1 m/S 746 mmHg 90%
07:00 +19°C° 0.1 mm 1 m/S 746 mmHg 86%
08:00 +21°C° 0.1 mm 1 m/S 747 mmHg 81%
09:00 +22°C° 0.5 mm 1 m/S 747 mmHg 76%
10:00 +23°C° 0.5 mm 1 m/S 747 mmHg 71%
11:00 +25°C° 0.5 mm 2 m/S 747 mmHg 65%
12:00 +25°C° 1.3 mm 2 m/S 747 mmHg 65%
13:00 +25°C° 1.3 mm 1 m/S 747 mmHg 65%
14:00 +26°C° 1.3 mm 1 m/S 747 mmHg 65%
15:00 +25°C° 0.9 mm 1 m/S 747 mmHg 67%
16:00 +25°C° 0.9 mm 1 m/S 747 mmHg 69%
17:00 +25°C° 0.9 mm 1 m/S 747 mmHg 71%
18:00 +24°C° 0.3 mm 1 m/S 747 mmHg 75%
19:00 +22°C° 0.3 mm 1 m/S 747 mmHg 80%
20:00 +21°C° 0.3 mm 1 m/S 747 mmHg 85%
21:00 +20°C° 0 mm 1 m/S 747 mmHg 87%
22:00 +20°C° 0 mm 1 m/S 747 mmHg 89%
23:00 +19°C° 0 mm 1 m/S 747 mmHg 91%

18 Juli, Samstag

Zeit Temperatur Niederschläge Wind Luftdruck Luftfeuchtigkeit
00:00 +19°C° 0 mm 1 m/S 748 mmHg 92%
01:00 +18°C° 0 mm 1 m/S 748 mmHg 93%
02:00 +18°C° 0 mm 1 m/S 748 mmHg 94%
03:00 +18°C° 0 mm 1 m/S 748 mmHg 94%
04:00 +16°C° 0 mm 1 m/S 748 mmHg 95%
05:00 +16°C° 0 mm 1 m/S 748 mmHg 95%
06:00 +19°C° 0 mm 1 m/S 748 mmHg 91%
07:00 +20°C° 0 mm 1 m/S 748 mmHg 88%
08:00 +22°C° 0 mm 1 m/S 749 mmHg 84%
09:00 +24°C° 0 mm 1 m/S 749 mmHg 75%
10:00 +25°C° 0 mm 1 m/S 749 mmHg 67%
11:00 +27°C° 0 mm 1 m/S 749 mmHg 59%
12:00 +28°C° 0.1 mm 1 m/S 749 mmHg 57%
13:00 +28°C° 0.1 mm 1 m/S 748 mmHg 55%
14:00 +29°C° 0.1 mm 1 m/S 748 mmHg 54%
15:00 +28°C° 0.5 mm 1 m/S 748 mmHg 59%
16:00 +27°C° 0.5 mm 2 m/S 748 mmHg 64%
17:00 +27°C° 0.5 mm 2 m/S 748 mmHg 69%
18:00 +25°C° 0.2 mm 2 m/S 748 mmHg 74%
19:00 +24°C° 0.2 mm 2 m/S 748 mmHg 79%
20:00 +22°C° 0.2 mm 1 m/S 748 mmHg 84%
21:00 +22°C° 0 mm 1 m/S 749 mmHg 86%
22:00 +21°C° 0 mm 1 m/S 749 mmHg 88%
23:00 +20°C° 0 mm 1 m/S 749 mmHg 90%

19 Juli, Sonntag

Zeit Temperatur Niederschläge Wind Luftdruck Luftfeuchtigkeit
00:00 +20°C° 0 mm 1 m/S 749 mmHg 91%
01:00 +19°C° 0 mm 1 m/S 749 mmHg 91%
02:00 +19°C° 0 mm 1 m/S 749 mmHg 92%
03:00 +19°C° 0 mm 1 m/S 749 mmHg 92%
04:00 +19°C° 0 mm 1 m/S 749 mmHg 92%
05:00 +19°C° 0 mm 1 m/S 749 mmHg 93%
06:00 +20°C° 0 mm 1 m/S 749 mmHg 88%
07:00 +22°C° 0 mm 1 m/S 749 mmHg 84%
08:00 +23°C° 0 mm 1 m/S 749 mmHg 80%
09:00 +25°C° 0.7 mm 1 m/S 749 mmHg 74%
10:00 +26°C° 0.7 mm 1 m/S 749 mmHg 68%
11:00 +28°C° 0.7 mm 1 m/S 749 mmHg 61%
12:00 +28°C° 0.8 mm 1 m/S 748 mmHg 59%
13:00 +28°C° 0.8 mm 1 m/S 748 mmHg 57%
14:00 +29°C° 0.8 mm 1 m/S 748 mmHg 55%
15:00 +28°C° 1.3 mm 1 m/S 748 mmHg 62%
16:00 +27°C° 1.3 mm 2 m/S 747 mmHg 69%
17:00 +26°C° 1.3 mm 2 m/S 747 mmHg 76%
18:00 +24°C° 1.1 mm 2 m/S 747 mmHg 81%
19:00 +21°C° 1.1 mm 2 m/S 747 mmHg 86%
20:00 +20°C° 1.1 mm 2 m/S 747 mmHg 91%
21:00 +19°C° 1 mm 2 m/S 747 mmHg 92%
22:00 +19°C° 1 mm 2 m/S 747 mmHg 93%
23:00 +18°C° 1 mm 2 m/S 747 mmHg 94%

20 Juli, Montag

Zeit Temperatur Niederschläge Wind Luftdruck Luftfeuchtigkeit
00:00 +18°C° 0.6 mm 2 m/S 747 mmHg 95%
01:00 +18°C° 0.6 mm 2 m/S 747 mmHg 95%
02:00 +18°C° 0.6 mm 2 m/S 747 mmHg 96%
03:00 +17°C° 0.3 mm 2 m/S 747 mmHg 96%
04:00 +17°C° 0.3 mm 2 m/S 747 mmHg 96%
05:00 +17°C° 0.3 mm 2 m/S 746 mmHg 97%
06:00 +18°C° 0.2 mm 2 m/S 746 mmHg 94%
07:00 +19°C° 0.2 mm 2 m/S 746 mmHg 92%
08:00 +20°C° 0.2 mm 2 m/S 746 mmHg 89%
09:00 +21°C° 1.1 mm 2 m/S 746 mmHg 85%
10:00 +24°C° 1.1 mm 2 m/S 746 mmHg 80%
11:00 +25°C° 1.1 mm 2 m/S 746 mmHg 75%
12:00 +25°C° 1.2 mm 2 m/S 745 mmHg 74%
13:00 +26°C° 1.2 mm 2 m/S 745 mmHg 72%
14:00 +26°C° 1.2 mm 3 m/S 745 mmHg 70%
15:00 +26°C° 0.4 mm 2 m/S 745 mmHg 69%
16:00 +26°C° 0.4 mm 2 m/S 744 mmHg 69%
17:00 +26°C° 0.4 mm 2 m/S 744 mmHg 68%
18:00 +25°C° 0.1 mm 2 m/S 744 mmHg 74%
19:00 +23°C° 0.1 mm 1 m/S 744 mmHg 80%
20:00 +22°C° 0.1 mm 1 m/S 744 mmHg 86%
21:00 +21°C° 0 mm 1 m/S 744 mmHg 88%
22:00 +20°C° 0 mm 1 m/S 744 mmHg 91%
23:00 +19°C° 0 mm 1 m/S 744 mmHg 93%
Mehr zeigen